Location: Gorze? G�rny
(49.8500°N, 19.5000°E)
Time: 03:19:03
(UTC+00:00)

Cosmos 923 Rocket - Pass Details

Date: 13 May 2021
Orbit: 757 x 786 km, 74.0° (Epoch: 23 June)

Event Time Altitude Azimuth Distance (km) Brightness Sun altitude
Rises 19:48:27 0° 337° (NNW) 3,246 8.8 -11.9°
Reaches altitude 10° 19:50:52 10° 341° (NNW) 2,320 7.7 -12.2°
Maximum altitude 19:56:06 66° 64° (ENE) 846 4.1 -12.7°
Enters shadow 19:59:54 19° 143° (SE) 1,781 5.2 -13.1°
